Location: Darr Creek
(38.4314°N, 100.2096°W)
Time: 04:31:46
(UTC+00:00)

Daily predictions for brighter satellites

Satellite Brightness Start Highest point End
(mag) Time Altitude Azimuth Time Altitude Azimuth Time Altitude Azimuth
Cosmos 1697 Rocket 2.9 00:52:17 10° S 00:57:39 49° ESE 01:03:03 10° NNE
Cosmos 1842 3.4 00:56:18 10° N 01:00:08 77° W 01:03:58 10° S
Okean O Rocket 2.5 00:57:30 10° SE 01:01:11 28° ENE 01:04:53 10° N
Cosmos 2242 Rocket 3.5 00:57:53 10° N 01:02:17 69° E 01:06:38 10° SSE
Meteor 2-8 Rocket 4.4 00:56:41 10° N 01:02:46 81° E 01:08:50 10° S
Tsikada Rocket 4.2 00:56:35 10° S 01:02:59 88° W 01:09:27 10° N
Cosmos 1733 4.4 01:00:15 10° SE 01:03:10 21° E 01:06:04 10° NE
COBE Rocket 4.3 00:59:55 10° SE 01:04:36 42° ENE 01:09:11 10° N
BREEZE-M DEB (TANK) 4.2 01:04:00 10° NNW 01:05:19 14° NNE 01:06:56 10° ENE
Cosmos 1707 2.7 01:02:30 10° N 01:06:16 60° E 01:10:00 10° SSE
Cosmos 1726 3.9 01:05:18 10° ESE 01:06:47 12° E 01:08:16 10° ENE
Meteor 2-19 Rocket 4.4 01:02:45 10° S 01:08:48 74° E 01:14:57 10° N
NOSS 3-1 (C) 4.2 01:02:45 10° NNW 01:10:27 70° NE 01:19:26 10° SE
PAYLOAD B 4.2 01:07:35 10° SSE 01:13:06 84° ENE 01:18:39 10° NNW
Cosmos 2084 3.8 01:12:50 10° S 01:16:19 33° ESE 01:19:46 10° NE
USA 267 3.8 01:10:59 10° SSE 01:17:27 62° SW 01:23:56 10° NW
Cosmos 1954 Rocket 4.0 01:13:14 10° SSW 01:18:24 87° WNW 01:23:36 10° NNE
CZ-4B R/B 3.1 01:15:42 10° SSE 01:20:57 68° ENE 01:26:20 10° N
Cosmos 2227 Rocket 2.3 01:16:52 10° NNW 01:22:27 58° ENE 01:28:00 10° SE
Cosmos 1242 Rocket 2.8 01:20:58 10° SSE 01:24:20 42° E 01:27:43 10° NNE
CZ-4C R/B 3.7 01:17:30 10° NW 01:25:06 64° WSW 01:33:42 10° SSE
Cosmos 540 Rocket 4.2 01:22:05 10° N 01:26:38 31° ENE 01:30:09 15° ESE
CZ-2C R/B 1.3 01:23:40 10° WSW 01:26:50 46° S 01:28:54 20° ESE
BREEZE-M R/B 2.1 01:27:51 10° SW 01:29:42 52° SE 01:30:54 22° ENE
ASTEX 1 3.5 01:25:59 10° N 01:30:58 81° W 01:35:56 10° S
YAOGAN 1 2.5 01:27:05 10° SSE 01:31:22 74° ENE 01:35:41 10° N
SL-14 R/B 4.3 01:28:31 10° NNE 01:31:49 25° ENE 01:33:16 20° ESE
Lacrosse 5 2.5 01:28:11 10° NW 01:33:09 55° SW 01:38:05 10° SSE
Cosmos 1763 Rocket 3.4 01:29:46 10° NNW 01:34:47 62° ENE 01:39:49 10° SSE
Cosmos 2369 3.8 01:29:28 10° S 01:35:01 54° ESE 01:40:35 10° NNE
Cosmos 1741 Rocket 4.4 01:30:20 10° S 01:35:16 41° ESE 01:40:12 10° NNE
Cosmos 1980 Rocket 2.3 01:30:43 10° S 01:36:08 51° ESE 01:41:35 10° NNE
Cosmos 2297 Rocket 2.6 01:31:42 10° NNW 01:37:19 67° WSW 01:42:54 10° S
Cosmos 1674 Rocket 4.4 01:34:40 10° NNE 01:38:28 28° ENE 01:40:00 23° ESE
Cosmos 2221 Rocket 4.0 01:36:07 10° N 01:40:23 41° E 01:44:01 14° SSE
Cosmos 2278 4.4 01:39:05 10° SSE 01:44:01 31° ESE 01:48:57 10° NE
Cosmos 1805 3.1 01:41:12 10° S 01:45:02 71° E 01:48:54 10° NNE
Cosmos 1626 2.7 01:44:56 10° NNW 01:48:30 57° W 01:52:02 10° S
USA 229 DEB 4.2 01:42:41 10° NNW 01:49:56 51° NE 01:54:49 23° ESE
USA 229 4.2 01:42:48 10° NNW 01:50:01 51° NE 01:54:52 23° ESE
Okean 2 3.4 01:46:40 10° N 01:50:50 83° W 01:54:57 10° S
NOSS 2-2 (C) 4.5 01:45:42 10° NNW 01:50:59 62° NE 01:56:06 20° SE
HJ-1C 3.9 01:48:20 10° S 01:51:23 55° W 01:54:28 10° NNW
CZ-4 R/B 1.4 01:49:14 10° SSE 01:53:20 87° WSW 01:57:32 10° NNW
Cosmos 1766 3.6 01:52:38 33° SE 01:53:31 38° E 01:57:09 10° NNE
Meteor 2-21 4.4 01:48:56 10° S 01:54:51 61° E 02:00:48 10° NNE
Cosmos 1809 Rocket 4.3 01:48:59 10° S 01:55:02 77° E 02:01:07 10° N
IRIDIUM 106 4.3 01:52:52 10° SSE 01:57:59 62° E 02:03:08 10° N
Okean-O 3.2 01:58:06 34° E 01:58:34 35° ENE 02:02:36 10° N
GENESIS II 4.2 01:57:12 10° NNW 02:01:16 70° ENE 02:02:26 44° SE
Landsat 5 3.5 01:57:10 10° NNE 02:01:40 68° ESE 02:06:06 10° S
Cosmos 2180 Rocket 4.4 01:57:22 10° N 02:03:37 78° E 02:09:54 10° S
Cosmos 2279 Rocket 4.2 02:00:30 10° N 02:06:44 75° W 02:12:58 10° S
USA 186 4.2 02:10:35 11° N 02:10:35 11° N 02:10:39 10° N
Cosmos 2219 3.5 02:03:27 10° NNW 02:09:11 71° WSW 02:14:32 12° SSE
Resurs 1-3 4.3 02:10:36 35° NE 02:10:36 35° NE 02:14:03 10° N
Cosmos 1378 Rocket 3.4 02:05:50 10° N 02:10:13 64° E 02:11:17 46° SE
Cosmos 1733 Rocket 4.1 02:10:23 10° SSW 02:14:37 47° W 02:18:55 10° N
NOSS 3-1 (A) 4.2 02:09:36 10° NW 02:17:27 84° WSW 02:24:08 20° SSE
SJ-6B 2.9 02:20:41 58° NNE 02:20:41 58° NNE 02:23:49 10° N
Hubble Space Telescope 2.6 02:17:22 10° SW 02:19:45 19° S 02:19:45 19° S
Meteor 1-12 Rocket 4.2 02:17:55 10° S 02:23:50 75° E 02:29:51 10° NNE
Cosmos 2263 Rocket 2.4 02:23:12 10° NNW 02:28:44 49° ENE 02:28:56 49° ENE
Cosmos 2082 3.6 02:25:01 10° NNW 02:30:46 88° WSW 02:32:38 45° SSE
IGS 5A 3.6 02:37:00 72° NW 02:37:00 72° NW 02:40:50 10° NNW
Okean O Rocket 3.9 02:34:00 10° SSW 02:37:28 23° W 02:40:58 10° NW
Gbstr 26 Del rocket 4.4 02:32:09 10° SW 02:39:48 86° NW 02:45:08 24° NE
Cosmos 1726 3.8 02:38:00 10° SW 02:41:18 33° WNW 02:44:38 10° NNW
CSL-04 Debris 4.5 02:41:06 31° S 02:43:41 65° WSW 02:49:04 10° NNW
BREEZE M DEB (TANK) 3.1 02:41:13 10° WSW 02:46:57 56° WSW 02:46:57 56° WSW
Cosmos 2292 Rocket 4.3 02:41:07 10° S 02:47:58 79° W 02:53:07 10° N
Cosmos 2195 Rocket 4.3 02:48:24 51° S 02:50:07 83° E 02:56:24 10° N
SL-4 R/B 4.4 02:48:19 10° NNW 02:51:16 19° N 02:51:16 19° N
Cosmos 1428 Rocket 4.3 02:52:30 69° SSE 02:53:19 83° E 02:59:32 10° N
Timation 2 Rocket 3.8 02:48:15 10° NNW 02:54:44 84° ENE 02:55:01 81° ESE
Cosmos 1908 Rocket 4.5 02:55:49 45° NW 02:55:49 45° NW 02:59:23 10° N
Cosmos 2285 Rocket 4.0 02:50:49 10° NNW 02:56:37 64° NE 02:56:37 64° NE
Cosmos 841 Rocket 4.2 03:00:04 10° NNW 03:05:02 48° WSW 03:05:13 48° WSW
CZ-2C R/B 4.0 03:02:20 10° W 03:02:36 12° WSW 03:02:36 12° WSW
Cosmos 2026 Rocket 4.0 03:09:33 69° N 03:09:33 69° N 03:14:50 10° N
Resurs 01 Rocket 3.9 03:17:18 19° NNW 03:17:18 19° NNW 03:18:33 10° NNW
Cosmos 1980 Rocket 4.4 03:16:03 10° WSW 03:20:25 23° NW 03:24:47 10° N
Cosmos 2263 Rocket 4.5 04:08:03 10° NW 04:10:38 19° WNW 04:10:38 19° WNW
CZ-2C R/B 4.4 09:19:52 10° NE 09:23:14 24° E 09:23:14 24° E
H-2A ROCKET BODY 4.0 09:38:18 24° SE 09:38:18 24° SE 09:43:59 10° ESE
ADEOS II 4.4 09:41:10 10° N 09:41:50 13° NNW 09:41:50 13° NNW
USA 234 4.2 09:43:15 10° ENE 09:49:13 37° SE 09:50:49 32° SSE
Cosmos 2123 Rocket 4.0 09:48:28 10° N 09:54:44 77° E 09:55:21 70° SE
BREEZE-M DEB (TANK) 3.4 09:59:34 65° NNE 09:59:50 66° NE 10:11:48 10° ESE
Cosmos 1934 Rocket 4.0 10:06:50 70° NW 10:06:50 70° NW 10:12:46 10° N
CZ-2C R/B 4.3 10:02:41 10° SE 10:07:13 31° ENE 10:11:49 10° N
Cosmos 1535 Rocket 4.3 10:08:03 82° SSW 10:08:19 87° W 10:14:27 10° N
Cosmos 1605 Rocket 4.0 10:07:50 44° SSE 10:09:49 73° E 10:15:53 10° N
USA 307 4.0 10:13:28 42° E 10:13:28 42° E 10:16:30 10° NE
DELTA 2 R/B (1) 4.1 10:13:04 46° SSE 10:13:08 46° SSE 10:18:28 10° E
PAYLOAD A 3.9 10:10:33 10° NNE 10:15:04 77° NE 10:15:04 77° NE
Cosmos 407 Rocket 4.4 10:11:48 10° N 10:16:57 49° ENE 10:22:06 10° SE
ALOS 3.1 10:14:49 10° N 10:17:58 42° N 10:17:58 42° N
Helios 1B rocket 3.1 10:17:08 10° NNE 10:20:18 52° NE 10:20:18 52° NE
BREEZE M DEB (TANK) 4.4 10:27:10 24° E 10:27:10 24° E 10:28:54 10° ENE
USA 306 3.2 10:27:30 60° NE 10:27:30 60° NE 10:30:56 10° NE
Atlas Centaur 2 3.4 10:26:15 38° SSW 10:28:09 44° S 10:34:49 10° ESE
Cosmos 1656 3.7 10:24:42 10° NNW 10:30:27 83° ENE 10:36:07 10° SSE
Cosmos 1484 Rocket 3.8 10:28:03 10° NNE 10:31:53 45° E 10:33:47 25° SSE
Cosmos 1633 Rocket 4.3 10:30:26 10° N 10:34:32 40° ENE 10:38:35 10° SSE
Meteor 1-14 Rocket 4.2 10:29:12 10° NNW 10:35:07 77° W 10:40:54 10° S
ARIANE 5 R/B 2.4 10:34:23 10° NNE 10:39:27 84° ESE 10:42:09 28° S
Cosmos 1515 3.8 10:43:10 50° SSE 10:43:59 71° E 10:47:42 10° NNE
Cosmos 1666 Rocket 3.9 10:40:09 10° N 10:44:36 67° E 10:49:02 10° SSE
Meteor 1-5 Rocket 4.3 10:40:05 10° NNW 10:44:53 46° W 10:44:53 46° W
Cosmos 1328 Rocket 3.8 10:43:44 16° S 10:47:06 69° E 10:51:28 10° NNE
USA 308 2.7 10:46:56 69° WNW 10:47:10 71° NW 10:51:19 10° NE
Cosmos 1023 Rocket 4.3 10:43:09 10° NNW 10:48:21 73° WSW 10:53:34 10° S
Meteor 1-11 Rocket 4.3 10:45:50 10° N 10:51:46 64° E 10:57:39 10° SSE
Orbus 7S? 3.5 10:53:54 43° NNW 10:53:54 43° NNW 10:57:46 10° NE
Cosmos 1624 Rocket 3.9 10:52:17 24° SSW 10:55:30 82° WNW 11:00:51 10° NNE
Cosmos 2098 Rocket 2.5 10:53:06 10° N 10:55:57 60° E 10:58:58 10° SSE
Cosmos 1536 3.8 10:52:14 10° N 10:56:11 49° E 11:00:06 10° SSE
ERS-1 4.4 10:52:55 10° N 10:58:06 70° WNW 11:02:02 17° SSW
YAOGAN 6 2.6 10:54:35 10° NNE 10:58:14 79° ESE 11:00:34 21° S
Cosmos 1356 4.0 11:01:03 38° NNW 11:01:03 38° NNW 11:03:24 10° N
CZ-2C R/B 3.1 10:57:43 10° N 11:02:10 33° WNW 11:02:36 32° W
Cosmos 1151 Rocket 3.4 11:04:21 39° W 11:04:41 40° W 11:08:43 10° N
Cosmos 1515 Rocket 4.3 11:01:12 10° S 11:05:29 54° E 11:09:50 10° NNE
Cosmos 2360 4.4 10:59:53 10° NNW 11:05:37 75° ENE 11:11:17 10° SSE
CZ-2C R/B 3.7 11:00:28 10° NNE 11:06:14 65° E 11:11:44 10° S
Cosmos 1371 Rocket 4.1 11:05:24 24° SW 11:08:31 57° WNW 11:13:42 10° N
ASTRO E2 4.0 11:07:39 23° SSW 11:08:42 27° S 11:12:02 10° ESE
Cosmos 1833 Rocket 2.9 11:06:47 28° WSW 11:09:26 48° WNW 11:14:54 10° NNE
Cosmos 2251 Rocket 4.1 11:05:38 10° NW 11:10:15 32° W 11:14:50 10° SSW
CZ-3 R/B 3.8 10:52:17 17° SW 11:10:22 44° S 11:18:02 10° ESE
Cosmos 1346 Rocket 2.8 11:08:57 27° SW 11:10:53 55° W 11:14:48 10° N
Envisat 2.9 11:06:29 10° NNE 11:11:36 86° W 11:16:40 10° SSW
Cosmos 44 Rocket 3.7 11:07:03 10° SSW 11:11:42 58° ESE 11:16:20 10° NE
IKONOS-2 4.4 11:08:04 10° SSE 11:12:16 85° WSW 11:16:31 10° NNW
ATLAS CENTAUR R/B 1.7 11:11:36 19° SW 11:15:01 82° WNW 11:19:56 10° NNE
Cosmos 1470 Rocket 3.8 11:11:15 10° N 11:15:35 70° E 11:19:54 10° SSE
Cosmos 2100 Rocket 3.9 11:11:04 10° S 11:17:13 87° W 11:23:24 10° N
USA 305 3.8 11:16:03 26° WNW 11:17:22 33° NW 11:21:08 10° NNE
Cosmos 1743 2.5 11:14:49 10° N 11:18:37 81° W 11:22:23 10° S
Tiangong -2.3 11:18:42 38° W 11:19:45 75° SSW 11:22:52 10° ESE
COSMOS 2406 3.1 11:14:17 10° SSW 11:19:56 77° WNW 11:25:38 10° NNE
X-37B 1.7 11:19:23 24° NW 11:20:06 28° NNW 11:22:38 10° NE
Cosmos 1441 Rocket 3.1 11:17:05 14° SSW 11:20:08 58° W 11:23:49 10° N
Cosmos 2082 Rocket 2.3 11:14:43 10° SSW 11:20:19 81° ESE 11:25:57 10° NNE
Cosmos 2084 4.2 11:20:28 27° W 11:21:12 28° WSW 11:24:55 10° S
CZ-2C R/B 3.1 11:19:09 10° NNE 11:22:53 64° E 11:26:40 10° S
Cosmos 1140 Rocket 4.1 11:20:36 10° NW 11:25:13 33° W 11:29:51 10° SSW
Cosmos 2016 Rocket 4.4 11:23:07 10° S 11:29:24 71° E 11:35:45 10° NNE
Meteor 1-29 3.1 11:26:19 10° N 11:29:28 46° WNW 11:32:35 10° SSW
Cosmos 1378 3.9 11:26:52 10° S 11:30:24 54° E 11:33:57 10° NNE
Delta 2 Rocket 4.2 11:28:46 16° SW 11:30:50 29° SSE 11:33:46 10° E
USA 234 3.4 11:25:57 10° NE 11:32:21 60° NW 11:38:11 13° WSW
CZ-4C R/B 3.3 11:31:36 10° SSE 11:35:36 84° WSW 11:39:50 10° NNW
Cosmos 1697 Rocket 2.7 11:30:55 10° NNW 11:36:30 61° WSW 11:42:02 10° S
COSMO-SKYMED 1 3.7 11:34:37 10° SSE 11:38:47 49° ENE 11:42:59 10° N
Cosmos 2056 Rocket 4.2 11:35:19 14° WSW 11:39:09 32° WNW 11:43:43 10° N
Okean 1 3.3 11:35:52 10° S 11:39:54 84° W 11:43:57 10° N
SJ-12 4.0 11:40:25 10° NNE 11:44:29 79° ESE 11:48:34 10° S
MINOTAUR 4 R/B 4.1 11:42:29 10° SSE 11:45:57 80° ENE 11:49:28 10° N
Cosmos 1190 Rocket 4.4 11:41:19 10° NW 11:46:05 38° WSW 11:50:52 10° SSW
CZ-2C R/B 3.3 11:43:00 10° SSW 11:47:27 29° W 11:51:59 10° NW
Cosmos 1954 Rocket 4.0 11:42:26 10° NNW 11:47:35 58° WSW 11:52:44 10° S
H-2A R/B 3.0 11:45:30 10° N 11:48:57 41° WNW 11:52:23 10° SW
Meteor 1-27 Rocket 4.2 11:45:07 10° SW 11:50:27 40° WNW 11:55:55 10° N
USA 307 4.3 11:49:04 12° W 11:52:04 24° NNW 11:55:29 10° NNE
